FW2321 Weather Reports


Display with metric or nautical units.
time (UTC)temp
F
wind
direction
speed
MPH
gust
MPH
rain 1hr
in
rain 24hr
in
rain mn
in
humidity
%
barometer
mb
20260509105034 53 214 3.0 10.0 0.00 0.00 0.00 88 1001.3
20260509104542 53 213 4.0 9.0 0.00 0.00 0.00 88 1001.1
20260509104038 53 279 2.0 10.0 0.00 0.00 0.00 88 1001.2
20260509103534 53 225 2.0 11.0 0.00 0.00 0.00 88 1001.0
20260509103055 53 251 4.0 11.0 0.00 0.00 0.00 88 1000.9
20260509102533 53 222 4.0 9.0 0.00 0.00 0.00 88 1000.7
20260509102034 53 212 3.0 10.0 0.00 0.00 0.00 88 1000.7
20260509101558 53 265 3.0 10.0 0.00 0.00 0.00 88 1000.7
20260509101034 53 210 3.0 9.0 0.00 0.00 0.00 88 1000.8
20260509100534 53 222 5.0 11.0 0.00 0.00 0.00 88 1000.9
20260509100047 53 241 3.0 11.0 0.00 0.00 0.00 87 1000.8
20260509095534 53 273 4.0 12.0 0.00 0.00 0.00 87 1000.8
20260509095036 54 219 3.0 12.0 0.00 0.00 0.00 87 1000.8
20260509094543 54 202 5.0 12.0 0.00 0.00 0.00 87 1000.9
20260509094035 54 203 3.0 12.0 0.00 0.00 0.00 86 1001.1
20260509093534 54 213 3.0 12.0 0.00 0.00 0.00 86 1001.3
20260509093043 54 244 3.0 12.0 0.00 0.00 0.00 86 1001.3
20260509092533 54 276 3.0 10.0 0.00 0.00 0.00 86 1001.3
20260509092034 54 214 4.0 10.0 0.00 0.00 0.00 86 1001.2
20260509091550 54 212 3.0 17.0 0.00 0.00 0.00 85 1001.4
20260509091035 54 252 4.0 17.0 0.00 0.00 0.00 85 1001.2
20260509090535 54 285 5.0 16.0 0.00 0.00 0.00 86 1001.2
20260509090045 54 235 3.0 11.0 0.00 0.00 0.00 85 1001.1
20260509085536 54 205 4.0 12.0 0.00 0.00 0.00 85 1001.1
20260509085034 54 211 4.0 13.0 0.00 0.00 0.00 85 1001.0
20260509084543 54 217 5.0 13.0 0.00 0.00 0.00 85 1001.0
20260509084034 54 194 4.0 15.0 0.00 0.00 0.00 85 1001.0
20260509083533 54 242 3.0 15.0 0.00 0.00 0.00 85 1001.0
20260509083042 54 259 7.0 15.0 0.00 0.00 0.00 85 1001.0
20260509082533 54 219 4.0 12.0 0.00 0.00 0.00 85 1001.0
20260509082034 54 194 6.0 15.0 0.00 0.00 0.00 85 1001.0
20260509081540 54 188 5.0 15.0 0.00 0.00 0.00 85 1001.0
20260509081034 54 209 5.0 13.0 0.00 0.00 0.00 85 1001.1
20260509080536 54 236 5.0 11.0 0.00 0.00 0.00 85 1001.0
20260509080051 54 222 4.0 14.0 0.00 0.00 0.00 85 1001.0
20260509075535 54 173 5.0 14.0 0.00 0.00 0.00 85 1001.1
20260509075034 54 191 6.0 13.0 0.00 0.00 0.00 84 1001.1
20260509074544 54 198 6.0 13.0 0.00 0.00 0.00 84 1001.2
20260509074038 54 207 6.0 13.0 0.00 0.00 0.00 84 1001.2
20260509073534 54 209 6.0 16.0 0.00 0.00 0.00 83 1001.2
20260509073046 54 207 5.0 16.0 0.00 0.00 0.00 83 1001.3
20260509072538 55 210 6.0 16.0 0.00 0.00 0.00 82 1001.3
20260509072036 55 209 6.0 10.0 0.00 0.00 0.00 82 1001.3
20260509071543 55 209 5.0 11.0 0.00 0.00 0.00 82 1001.2
20260509071037 55 219 6.0 11.0 0.00 0.00 0.00 81 1001.3
20260509070539 55 186 5.0 12.0 0.00 0.00 0.00 81 1001.5
20260509070050 55 215 5.0 14.0 0.00 0.00 0.00 80 1001.5
20260509065538 55 213 5.0 14.0 0.00 0.00 0.00 80 1001.5
20260509065036 56 199 7.0 13.0 0.00 0.00 0.00 79 1001.6
20260509064557 56 220 6.0 13.0 0.00 0.00 0.00 79 1001.7
20260509064034 56 209 6.0 16.0 0.00 0.00 0.00 78 1001.8
20260509063534 56 230 5.0 16.0 0.00 0.00 0.00 77 1001.9
20260509063047 56 219 4.0 17.0 0.00 0.00 0.00 77 1002.0
20260509062534 56 223 7.0 17.0 0.00 0.00 0.00 77 1002.0
20260509062034 56 212 5.0 15.0 0.00 0.00 0.00 76 1002.1
20260509061554 56 223 6.0 15.0 0.00 0.00 0.00 75 1002.3
20260509061038 57 239 6.0 14.0 0.00 0.00 0.00 74 1002.3
20260509060534 57 290 7.0 15.0 0.00 0.00 0.00 73 1002.4
20260509060044 57 211 6.0 15.0 0.00 0.00 0.00 72 1002.6
20260509055536 57 239 6.0 14.0 0.00 0.00 0.00 72 1002.6
20260509055033 57 178 6.0 14.0 0.00 0.00 0.00 71 1002.6
20260509054608 56 229 4.0 14.0 0.00 0.00 0.00 71 1002.5
20260509054033 57 229 6.0 18.0 0.00 0.00 0.00 70 1002.7
20260509053537 57 227 5.0 18.0 0.00 0.00 0.00 69 1002.7
20260509053055 57 206 7.0 18.0 0.00 0.00 0.00 69 1002.7
20260509052534 56 213 5.0 13.0 0.00 0.00 0.00 69 1002.9
20260509052034 56 215 6.0 12.0 0.00 0.00 0.00 68 1003.0
20260509051550 56 209 5.0 12.0 0.00 0.00 0.00 69 1003.0
20260509051036 56 227 6.0 12.0 0.00 0.00 0.00 69 1003.2
20260509050534 55 254 5.0 11.0 0.00 0.00 0.00 72 1003.3
20260509050053 54 201 3.0 8.0 0.00 0.00 0.00 74 1003.3
20260509045534 53 214 4.0 8.0 0.00 0.00 0.00 75 1003.3
20260509045034 53 229 3.0 7.0 0.00 0.00 0.00 76 1003.3
20260509044542 53 211 3.0 7.0 0.00 0.00 0.00 77 1003.2
20260509044034 52 207 3.0 7.0 0.00 0.00 0.00 78 1003.3
20260509043534 52 211 3.0 6.0 0.00 0.00 0.00 78 1003.1
20260509043047 52 210 2.0 6.0 0.00 0.00 0.00 79 1002.9
20260509042534 52 217 1.0 6.0 0.00 0.00 0.00 79 1003.1
20260509042036 52 169 1.0 5.0 0.00 0.00 0.00 80 1003.2
20260509041548 52 198 2.0 5.0 0.00 0.00 0.00 79 1003.3
20260509041034 52 173 0.0 3.0 0.00 0.00 0.00 79 1003.2
20260509040534 52 173 1.0 4.0 0.00 0.00 0.00 79 1003.3
20260509040045 52 173 1.0 4.0 0.00 0.00 0.00 79 1003.2
20260509035534 53 0 2.0 5.0 0.00 0.00 0.00 78 1003.2
20260509035033 53 184 1.0 5.0 0.00 0.00 0.00 78 1003.0
20260509034546 53 186 1.0 7.0 0.00 0.00 0.00 78 1003.1
20260509034034 53 204 2.0 7.0 0.00 0.00 0.00 77 1003.2
20260509033537 53 169 2.0 7.0 0.00 0.00 0.00 77 1003.2
20260509033044 53 169 3.0 6.0 0.00 0.00 0.00 77 1003.1
20260509032534 53 0 3.0 6.0 0.00 0.00 0.00 76 1003.2
20260509032034 53 164 2.0 8.0 0.00 0.00 0.00 76 1003.1
20260509031604 53 0 2.0 8.0 0.00 0.00 0.00 76 1003.2
20260509031035 53 163 2.0 7.0 0.00 0.00 0.00 76 1003.2
20260509030534 53 178 3.0 7.0 0.00 0.00 0.00 75 1003.3
20260509030040 53 160 3.0 7.0 0.00 0.00 0.00 75 1003.4
20260509025534 53 167 3.0 6.0 0.00 0.00 0.00 74 1003.5
20260509025037 53 170 2.0 7.0 0.00 0.00 0.00 73 1003.5
20260509024539 53 166 3.0 7.0 0.00 0.00 0.00 73 1003.5
20260509024036 53 159 3.0 8.0 0.00 0.00 0.00 72 1003.5
20260509023536 54 155 3.0 8.0 0.00 0.00 0.00 72 1003.4
20260509023039 54 181 2.0 8.0 0.00 0.00 0.00 71 1003.6
20260509022534 54 166 2.0 7.0 0.00 0.00 0.00 70 1003.6
20260509022034 54 165 3.0 7.0 0.00 0.00 0.00 70 1003.5
20260509021547 54 165 2.0 6.0 0.00 0.00 0.00 69 1003.5
20260509021037 55 164 3.0 7.0 0.00 0.00 0.00 68 1003.6
20260509020534 55 173 2.0 7.0 0.00 0.00 0.00 68 1003.6
20260509020045 55 167 3.0 7.0 0.00 0.00 0.00 67 1003.5
20260509015534 55 171 2.0 7.0 0.00 0.00 0.00 66 1003.6
20260509015034 55 171 3.0 7.0 0.00 0.00 0.00 66 1003.5
20260509014543 56 126 4.0 8.0 0.00 0.00 0.00 65 1003.6
20260509014034 56 173 4.0 10.0 0.00 0.00 0.00 64 1003.6
20260509013533 56 167 4.0 10.0 0.00 0.00 0.00 63 1003.7
20260509013040 57 163 4.0 9.0 0.00 0.00 0.00 63 1003.7
20260509012533 57 171 4.0 10.0 0.00 0.00 0.00 62 1003.8
20260509012034 57 165 4.0 10.0 0.00 0.00 0.00 61 1003.7
20260509011547 58 178 4.0 9.0 0.00 0.00 0.00 60 1003.7
20260509011035 58 172 4.0 7.0 0.00 0.00 0.00 59 1003.7
20260509010534 59 182 3.0 8.0 0.00 0.00 0.00 57 1003.8
20260509010048 60 175 3.0 8.0 0.00 0.00 0.00 56 1003.8
20260509005534 60 178 3.0 7.0 0.00 0.00 0.00 54 1003.8
20260509005035 61 186 3.0 7.0 0.00 0.00 0.00 52 1003.8
20260509004547 63 167 0.0 6.0 0.00 0.00 0.00 49 1003.9
20260509004034 64 165 1.0 6.0 0.00 0.00 0.00 45 1003.8
20260509003534 65 0 1.0 3.0 0.00 0.00 0.00 39 1003.8
20260509003047 65 219 1.0 7.0 0.00 0.00 0.00 36 1003.9
20260509002534 65 220 1.0 8.0 0.00 0.00 0.00 36 1003.8
20260509002034 65 0 3.0 8.0 0.00 0.00 0.00 37 1003.9
20260509001550 65 217 1.0 7.0 0.00 0.00 0.00 38 1003.9
20260509001034 66 231 4.0 7.0 0.00 0.00 0.00 36 1003.9
20260509000534 66 206 2.0 7.0 0.00 0.00 0.00 36 1004.0
20260509000048 66 216 3.0 8.0 0.00 0.00 0.00 37 1003.9
20260508235535 66 209 2.0 8.0 0.00 0.00 0.00 37 1003.8
20260508235034 66 219 3.0 9.0 0.00 0.00 0.00 36 1003.9
20260508234548 66 205 4.0 9.0 0.00 0.00 0.00 35 1004.0
20260508234036 67 183 3.0 8.0 0.00 0.00 0.00 35 1004.1
20260508233534 67 190 4.0 7.0 0.00 0.00 0.00 36 1004.0
20260508233054 67 200 2.0 8.0 0.00 0.00 0.00 37 1004.1
20260508232534 67 206 4.0 8.0 0.00 0.00 0.00 35 1004.2
20260508232034 67 212 3.0 8.0 0.00 0.00 0.00 36 1004.2
20260508231546 67 225 2.0 10.0 0.00 0.00 0.00 37 1004.3
20260508231035 67 253 3.0 11.0 0.00 0.00 0.00 36 1004.3
20260508230534 67 204 4.0 11.0 0.00 0.00 0.00 34 1004.4
20260508230123 67 0 4.0 11.0 0.00 0.00 0.00 36 1004.4
20260508225535 67 211 4.0 11.0 0.00 0.00 0.00 34 1004.4
20260508225033 67 263 5.0 11.0 0.00 0.00 0.00 36 1004.4
20260508224553 66 178 3.0 8.0 0.00 0.00 0.00 35 1004.4
20260508224037 66 209 3.0 8.0 0.00 0.00 0.00 35 1004.5
20260508223534 65 219 3.0 10.0 0.00 0.00 0.00 35 1004.5
20260508223039 66 195 3.0 10.0 0.00 0.00 0.00 37 1004.5
20260508222535 66 259 4.0 10.0 0.00 0.00 0.00 34 1004.6
20260508222033 67 243 3.0 10.0 0.00 0.00 0.00 34 1004.7
20260508221547 67 261 3.0 11.0 0.00 0.00 0.00 34 1004.7
20260508221034 67 273 2.0 11.0 0.00 0.00 0.00 35 1004.7
20260508220535 66 262 3.0 11.0 0.00 0.00 0.00 39 1004.8
20260508220114 66 267 5.0 11.0 0.00 0.00 0.00 33 1004.8
20260508215535 67 217 6.0 11.0 0.00 0.00 0.00 33 1004.7
20260508215034 67 206 6.0 11.0 0.00 0.00 0.00 33 1004.8
20260508214553 67 202 2.0 5.0 0.00 0.00 0.00 33 1004.9
20260508214037 67 223 1.0 8.0 0.00 0.00 0.00 33 1004.9
20260508213534 67 242 3.0 8.0 0.00 0.00 0.00 33 1004.8
20260508213053 67 268 2.0 9.0 0.00 0.00 0.00 35 1004.9
20260508212534 67 218 3.0 10.0 0.00 0.00 0.00 34 1005.0
20260508212034 67 281 3.0 10.0 0.00 0.00 0.00 33 1004.9
20260508211551 67 218 5.0 14.0 0.00 0.00 0.00 34 1005.0
20260508211037 67 217 5.0 14.0 0.00 0.00 0.00 33 1005.0
20260508210534 67 202 4.0 13.0 0.00 0.00 0.00 35 1005.0
20260508210049 67 188 3.0 10.0 0.00 0.00 0.00 35 1005.1
20260508205533 67 0 3.0 13.0 0.00 0.00 0.00 34 1005.2
20260508205033 67 221 7.0 13.0 0.00 0.00 0.00 36 1005.3
20260508204546 67 229 8.0 13.0 0.00 0.00 0.00 31 1005.4
20260508204036 67 262 3.0 14.0 0.00 0.00 0.00 33 1005.3
20260508203534 66 198 5.0 14.0 0.00 0.00 0.00 33 1005.5
20260508203048 66 289 4.0 14.0 0.00 0.00 0.00 33 1005.6
20260508202534 66 222 5.0 14.0 0.00 0.00 0.00 33 1005.6
20260508202034 66 230 5.0 13.0 0.00 0.00 0.00 30 1005.8
20260508201547 66 199 5.0 11.0 0.00 0.00 0.00 31 1005.8
20260508201034 66 223 3.0 12.0 0.00 0.00 0.00 35 1006.0
20260508200536 66 275 2.0 12.0 0.00 0.00 0.00 31 1006.1
20260508200043 66 230 4.0 12.0 0.00 0.00 0.00 30 1006.3
20260508195533 66 272 3.0 11.0 0.00 0.00 0.00 34 1006.2
20260508195038 66 212 2.0 10.0 0.00 0.00 0.00 35 1006.2
20260508194541 66 294 4.0 12.0 0.00 0.00 0.00 34 1006.4
20260508194033 66 210 4.0 13.0 0.00 0.00 0.00 34 1006.7
20260508193544 66 215 5.0 13.0 0.00 0.00 0.00 37 1006.7
20260508193052 66 288 4.0 15.0 0.00 0.00 0.00 31 1006.7
20260508192533 66 296 6.0 15.0 0.00 0.00 0.00 35 1006.8
20260508192034 65 175 6.0 14.0 0.00 0.00 0.00 37 1006.8
20260508191548 65 173 3.0 10.0 0.00 0.00 0.00 36 1006.8
20260508191033 65 200 4.0 10.0 0.00 0.00 0.00 37 1006.9
20260508190534 65 194 4.0 10.0 0.00 0.00 0.00 33 1006.9
20260508190053 65 300 4.0 10.0 0.00 0.00 0.00 35 1007.0
20260508185537 64 327 1.0 10.0 0.00 0.00 0.00 34 1006.9
20260508185033 64 224 5.0 10.0 0.00 0.00 0.00 36 1007.0
20260508184548 64 207 2.0 14.0 0.00 0.00 0.00 37 1007.1
20260508184036 64 161 5.0 14.0 0.00 0.00 0.00 40 1007.3
20260508183535 64 247 4.0 14.0 0.00 0.00 0.00 41 1007.4
20260508183046 64 143 7.0 14.0 0.00 0.00 0.00 38 1007.4
20260508182534 64 290 1.0 9.0 0.00 0.00 0.00 33 1007.5
20260508182033 64 175 4.0 9.0 0.00 0.00 0.00 35 1007.6
20260508181602 63 276 3.0 8.0 0.00 0.00 0.00 34 1007.8
20260508181033 63 209 2.0 8.0 0.00 0.00 0.00 33 1007.7
20260508180537 63 259 2.0 7.0 0.00 0.00 0.00 35 1007.8
20260508180048 63 283 2.0 11.0 0.00 0.00 0.00 34 1007.8
20260508175533 64 214 4.0 11.0 0.00 0.00 0.00 34 1007.9
20260508175038 63 259 4.0 10.0 0.00 0.00 0.00 36 1007.9
20260508174601 63 0 2.0 9.0 0.00 0.00 0.00 35 1008.0
20260508174034 63 277 4.0 9.0 0.00 0.00 0.00 33 1008.0
20260508173533 63 276 1.0 10.0 0.00 0.00 0.00 35 1008.1
20260508173059 62 0 3.0 10.0 0.00 0.00 0.00 34 1008.1
20260508172534 62 221 3.0 10.0 0.00 0.00 0.00 39 1008.1
20260508172035 62 228 3.0 10.0 0.00 0.00 0.00 37 1008.1
20260508171542 62 221 2.0 9.0 0.00 0.00 0.00 39 1008.3
20260508171037 62 217 2.0 9.0 0.00 0.00 0.00 40 1008.4
20260508170536 62 194 4.0 9.0 0.00 0.00 0.00 38 1008.6
20260508170043 61 216 4.0 10.0 0.00 0.00 0.00 35 1008.5
20260508165537 61 210 2.0 10.0 0.00 0.00 0.00 38 1008.6
20260508165035 61 213 4.0 9.0 0.00 0.00 0.00 41 1008.8
20260508164553 61 186 4.0 9.0 0.00 0.00 0.00 40 1008.8
20260508164035 61 259 2.0 7.0 0.00 0.00 0.00 36 1008.9
20260508163535 61 178 3.0 7.0 0.00 0.00 0.00 38 1008.9
20260508163040 61 0 2.0 8.0 0.00 0.00 0.00 34 1009.0
20260508162534 61 240 1.0 8.0 0.00 0.00 0.00 33 1009.1
20260508162034 61 241 3.0 7.0 0.00 0.00 0.00 37 1009.2
20260508161543 60 182 3.0 7.0 0.00 0.00 0.00 36 1009.3
20260508161036 60 0 1.0 7.0 0.00 0.00 0.00 34 1009.3
20260508160534 60 213 3.0 7.0 0.00 0.00 0.00 37 1009.3
20260508160044 60 222 3.0 8.0 0.00 0.00 0.00 35 1009.4
20260508155539 60 304 3.0 10.0 0.00 0.00 0.00 39 1009.5
20260508155036 60 225 4.0 10.0 0.00 0.00 0.00 42 1009.4
20260508154541 59 200 5.0 10.0 0.00 0.00 0.00 41 1009.6
20260508154033 59 221 3.0 8.0 0.00 0.00 0.00 38 1009.6
20260508153535 59 0 2.0 9.0 0.00 0.00 0.00 39 1009.6
20260508153044 59 0 1.0 9.0 0.00 0.00 0.00 43 1009.6
20260508152536 59 217 3.0 7.0 0.00 0.00 0.00 42 1009.4
20260508152034 59 182 3.0 8.0 0.00 0.00 0.00 45 1009.5
20260508151550 59 181 3.0 8.0 0.00 0.00 0.00 43 1009.6
20260508151035 59 0 2.0 6.0 0.00 0.00 0.00 46 1009.7
20260508150536 58 188 2.0 8.0 0.00 0.00 0.00 42 1009.7
20260508150048 58 217 4.0 9.0 0.00 0.00 0.00 45 1009.6
20260508145534 57 200 4.0 9.0 0.00 0.00 0.00 46 1009.8
20260508145034 57 178 1.0 7.0 0.00 0.00 0.00 50 1009.7
20260508144553 56 176 2.0 9.0 0.00 0.00 0.00 49 1009.9
20260508144035 56 211 4.0 9.0 0.00 0.00 0.00 53 1009.7
20260508143535 56 206 4.0 9.0 0.00 0.00 0.00 53 1009.6
20260508143043 56 215 4.0 9.0 0.00 0.00 0.00 54 1009.6
20260508142536 55 163 4.0 8.0 0.00 0.00 0.00 57 1009.6
20260508142038 55 188 3.0 9.0 0.00 0.00 0.00 58 1009.8
20260508141558 54 175 4.0 9.0 0.00 0.00 0.00 64 1009.8
20260508141037 53 175 2.0 7.0 0.00 0.00 0.00 70 1009.8
20260508140536 53 177 4.0 7.0 0.00 0.00 0.00 69 1009.8
20260508140051 52 169 2.0 7.0 0.00 0.00 0.00 73 1009.9
20260508135536 51 172 2.0 7.0 0.00 0.00 0.00 74 1009.9
20260508135035 51 170 3.0 7.0 0.00 0.00 0.00 74 1010.0
20260508134557 50 0 2.0 6.0 0.00 0.00 0.00 77 1009.9
20260508134034 49 186 3.0 5.0 0.00 0.00 0.00 78 1010.0
20260508133536 48 175 2.0 7.0 0.00 0.00 0.00 81 1010.0
20260508133046 48 186 2.0 7.0 0.00 0.00 0.00 84 1010.2
20260508132538 46 183 3.0 6.0 0.00 0.00 0.00 86 1010.1
20260508132037 45 189 2.0 5.0 0.00 0.00 0.00 90 1010.2
20260508131546 44 184 2.0 5.0 0.00 0.00 0.00 91 1010.3
20260508131034 44 187 2.0 7.0 0.00 0.00 0.00 93 1010.3
20260508130540 43 184 2.0 7.0 0.00 0.00 0.00 94 1010.2
20260508130047 42 215 4.0 7.0 0.00 0.00 0.00 95 1010.2
20260508125538 41 207 2.0 5.0 0.00 0.00 0.00 98 1010.4
20260508125038 41 219 0.0 3.0 0.00 0.00 0.00 99 1010.4
20260508124548 40 0 0.0 3.0 0.00 0.00 0.00 100 1010.4
20260508124034 40 273 0.0 3.0 0.00 0.00 0.00 100 1010.3
20260508123534 39 0 0.0 0.0 0.00 0.00 0.00 100 1010.4
20260508123056 38 0 0.0 0.0 0.00 0.00 0.00 99 1010.4
20260508122534 36 0 0.0 0.0 0.00 0.00 0.00 99 1010.4
20260508122038 35 0 0.0 0.0 0.00 0.00 0.00 99 1010.4
20260508121548 34 0 0.0 0.0 0.00 0.00 0.00 99 1010.3
20260508121038 32 0 0.0 0.0 0.00 0.00 0.00 98 1010.2
20260508120534 32 0 0.0 0.0 0.00 0.00 0.00 98 1010.3
20260508120054 31 0 0.0 0.0 0.00 0.00 0.00 98 1010.2
20260508115534 31 0 0.0 0.0 0.00 0.00 0.00 98 1010.2
20260508115033 30 0 0.0 0.0 0.00 0.00 0.00 98 1010.1
20260508114550 30 0 0.0 0.0 0.00 0.00 0.00 97 1010.0
20260508114040 29 0 0.0 0.0 0.00 0.00 0.00 97 1010.1
20260508113538 29 0 0.0 0.0 0.00 0.00 0.00 97 1010.1
20260508113054 29 0 0.0 0.0 0.00 0.00 0.00 96 1010.0
20260508112535 29 0 0.0 0.0 0.00 0.00 0.00 96 1010.1
20260508112037 29 0 0.0 0.0 0.00 0.00 0.00 97 1010.2
20260508111549 29 0 0.0 0.0 0.00 0.00 0.00 96 1010.2
20260508111037 28 0 0.0 0.0 0.00 0.00 0.00 96 1010.0
20260508110534 28 0 0.0 0.0 0.00 0.00 0.00 96 1010.2
20260508110049 28 0 0.0 0.0 0.00 0.00 0.00 96 1010.2
20260508105533 28 0 0.0 0.0 0.00 0.00 0.00 96 1010.0